Regional Weather Roundup
Issued by NWS

Home | Current Version | Previous Version | Graphics & Text | Print | Product List | Glossary On
Versions: 1 2 3 4 5 6 7 8 9 10 11 12 13 14 15 16 17 18 19 20 21 22 23 24 25 26 27 28 29 30 31 32 33 34 35 36 37 38 39 40 41 42 43 44 45 46 47 48 49 50
000
ASUS45 KCYS 162110
RWRWY

WYOMING REGIONAL WEATHER ROUNDUP
NATIONAL WEATHER SERVICE CHEYENNE WY
300 PM MDT TUE SEP 16 2014

NOTE:  "FAIR" INDICATES FEW OR NO CLOUDS BELOW 12,000 FEET
WITH NO SIGNIFICANT WEATHER AND/OR OBSTRUCTIONS TO VISIBILITY.

WYZ001-162200-
YELLOWSTONE NATIONAL PARK

CITY           SKY/WX    TMP DP  RH WIND       PRES   REMARKS
LK YELLOWSTONE   N/A     64  31  28 VRB3      30.31F
W YELLOWSTONE  NOT AVBL

$$
WYZ002>013-054>058-071-098>099-162200-
NORTHERN WYOMING

CITY           SKY/WX    TMP DP  RH WIND       PRES   REMARKS
JACKSON        NOT AVBL
CODY           PTSUNNY   75  45  33 N12       30.07S
GREYBULL       MOSUNNY   83  40  21 SE3       29.99F
WORLAND        MOSUNNY   83  35  18 N3        30.01F
SHERIDAN       SUNNY     83  32  16 VRB3      30.00F
BUFFALO        SUNNY     82  36  19 N12       30.06F
GILLETTE       SUNNY     84  35  17 W9        30.01F
HULETT         FAIR      81  32  17 MISG      30.03
NEWCASTLE      FAIR      81  30  16 N5        30.02

$$
WYZ014>020-022>026-101>103-162200-
CENTRAL WYOMING

CITY           SKY/WX    TMP DP  RH WIND       PRES   REMARKS
BIG PINEY      PTSUNNY   79  32  18 NW10      30.25F
PINEDALE       MOCLDY    73  32  21 W16G23    30.26F
DUBOIS         MOCLDY    72  30  21 W31G38    30.23S
LANDER         SUNNY     85  35  16 N8        30.10F
RIVERTON       MOSUNNY   81  38  21 E7        30.09F
CASPER         SUNNY     86  29  12 NW21G31   30.09F
DOUGLAS        SUNNY     86  32  14 NW16G22   30.07F

$$
WYZ021-027>030-104>119-162200-
SOUTHERN WYOMING

CITY           SKY/WX    TMP DP  RH WIND       PRES   REMARKS
EVANSTON       MOSUNNY   78  36  21 SW13      30.25F
KEMMERER       PTCLDY    77  34  20 W12       30.26F
FORT BRIDGER   FAIR      80  33  18 NW16      30.27F
ROCK SPRINGS   MOSUNNY   79  30  16 NW14      30.21F
DIXON          FAIR      80  33  18 W8        30.25F
RAWLINS        MOSUNNY   79  28  15 W14G21    30.22F
SARATOGA       FAIR      77  30  18 NW6       30.25F
LARAMIE        MOSUNNY   77  29  17 NW20      30.25F
CHEYENNE       MOSUNNY   81  28  14 NW20G28   30.17F
TORRINGTON     SUNNY     85  41  21 CALM      30.03F
PINE BLUFFS    FAIR      81  32  17 NW14      30.12F

$$


USA.gov is the U.S. government's official web portal to all federal, state and local government web resources and services.